TimeEST,TemperatureF,Dew PointF,Humidity,Sea Level PressureIn,VisibilityMPH,Wind Direction,Wind SpeedMPH,Gust SpeedMPH,PrecipitationIn,Events,Conditions,WindDirDegrees,DateUTC
12:15 AM,32.0,32.0,100,30.11,10.0,WNW,3.5,-,N/A,,Overcast,290,2013-02-16 05:15:00
12:35 AM,32.0,30.2,93,30.11,10.0,Calm,Calm,-,N/A,,Overcast,0,2013-02-16 05:35:00
12:55 AM,32.0,28.4,87,30.11,10.0,Calm,Calm,-,N/A,,Overcast,0,2013-02-16 05:55:00
1:15 AM,32.0,28.4,87,30.11,10.0,Calm,Calm,-,N/A,,Overcast,0,2013-02-16 06:15:00
1:35 AM,32.0,26.6,80,30.11,10.0,Calm,Calm,-,N/A,,Overcast,0,2013-02-16 06:35:00
1:55 AM,32.0,26.6,80,30.11,10.0,Calm,Calm,-,N/A,,Overcast,0,2013-02-16 06:55:00
2:15 AM,32.0,26.6,80,30.10,10.0,Calm,Calm,-,N/A,,Overcast,0,2013-02-16 07:15:00
2:35 AM,32.0,26.6,80,30.10,10.0,Calm,Calm,-,N/A,,Overcast,0,2013-02-16 07:35:00
2:55 AM,32.0,26.6,80,30.10,10.0,WNW,3.5,-,N/A,,Overcast,300,2013-02-16 07:55:00
3:15 AM,32.0,26.6,80,30.09,10.0,West,3.5,-,N/A,,Overcast,270,2013-02-16 08:15:00
3:35 AM,30.2,26.6,86,30.08,10.0,WNW,3.5,-,N/A,,Overcast,300,2013-02-16 08:35:00
3:55 AM,30.2,26.6,86,30.08,10.0,Calm,Calm,-,N/A,,Overcast,0,2013-02-16 08:55:00
4:15 AM,30.2,26.6,86,30.08,10.0,Calm,Calm,-,N/A,,Overcast,0,2013-02-16 09:15:00
4:35 AM,30.2,26.6,86,30.08,10.0,WNW,3.5,-,N/A,,Mostly Cloudy,290,2013-02-16 09:35:00
4:55 AM,30.2,26.6,86,30.08,10.0,Calm,Calm,-,N/A,,Overcast,0,2013-02-16 09:55:00
5:15 AM,30.2,26.6,86,30.08,10.0,Calm,Calm,-,N/A,,Overcast,0,2013-02-16 10:15:00
5:35 AM,28.4,26.6,93,30.08,10.0,Calm,Calm,-,N/A,,Overcast,0,2013-02-16 10:35:00
6:15 AM,28.4,26.6,93,30.08,10.0,Calm,Calm,-,N/A,,Overcast,0,2013-02-16 11:15:00
6:35 AM,28.4,26.6,93,30.07,10.0,Calm,Calm,-,N/A,,Overcast,0,2013-02-16 11:35:00
6:55 AM,28.4,24.8,86,30.07,10.0,NW,3.5,-,N/A,,Overcast,320,2013-02-16 11:55:00
7:15 AM,30.2,24.8,80,30.07,10.0,Calm,Calm,-,N/A,,Overcast,0,2013-02-16 12:15:00
7:35 AM,28.4,24.8,86,30.08,10.0,Calm,Calm,-,N/A,,Overcast,0,2013-02-16 12:35:00
7:55 AM,28.4,23.0,80,30.08,10.0,Calm,Calm,-,N/A,,Overcast,0,2013-02-16 12:55:00
8:15 AM,28.4,24.8,86,30.08,10.0,Calm,Calm,-,N/A,,Overcast,0,2013-02-16 13:15:00
8:35 AM,28.4,24.8,86,30.09,10.0,Calm,Calm,-,N/A,,Overcast,0,2013-02-16 13:35:00
8:55 AM,30.2,24.8,80,30.09,10.0,SW,3.5,-,N/A,,Overcast,230,2013-02-16 13:55:00
9:15 AM,32.0,24.8,75,30.08,10.0,Calm,Calm,-,N/A,,Mostly Cloudy,0,2013-02-16 14:15:00
9:35 AM,30.2,26.6,86,30.08,10.0,Calm,Calm,-,N/A,,Mostly Cloudy,0,2013-02-16 14:35:00
9:55 AM,32.0,26.6,80,30.08,10.0,Calm,Calm,-,N/A,,Scattered Clouds,0,2013-02-16 14:55:00
10:15 AM,32.0,24.8,75,30.07,10.0,Calm,Calm,-,N/A,,Scattered Clouds,0,2013-02-16 15:15:00
10:35 AM,33.8,23.0,65,30.07,10.0,WSW,3.5,-,N/A,,Scattered Clouds,250,2013-02-16 15:35:00
1:15 PM,35.6,14.0,41,30.02,10.0,WNW,5.8,-,N/A,,Clear,300,2013-02-16 18:15:00
1:35 PM,35.6,14.0,41,30.01,10.0,NW,5.8,-,N/A,,Scattered Clouds,320,2013-02-16 18:35:00
1:55 PM,35.6,15.8,44,30.01,10.0,WNW,5.8,-,N/A,,Scattered Clouds,290,2013-02-16 18:55:00
2:15 PM,33.8,15.8,48,30.01,10.0,WNW,4.6,-,N/A,,Clear,290,2013-02-16 19:15:00
2:35 PM,33.8,14.0,44,30.00,10.0,West,4.6,-,N/A,,Clear,280,2013-02-16 19:35:00
2:55 PM,35.6,12.2,38,30.00,10.0,West,5.8,-,N/A,,Clear,280,2013-02-16 19:55:00
3:15 PM,33.8,15.8,48,30.00,10.0,West,4.6,-,N/A,,Clear,270,2013-02-16 20:15:00
3:35 PM,35.6,15.8,44,30.00,10.0,WSW,3.5,-,N/A,,Clear,250,2013-02-16 20:35:00
3:55 PM,33.8,15.8,48,30.00,10.0,West,3.5,-,N/A,,Clear,260,2013-02-16 20:55:00
4:15 PM,33.8,14.0,44,30.00,10.0,NW,3.5,-,N/A,,Scattered Clouds,310,2013-02-16 21:15:00
4:35 PM,33.8,17.6,52,30.00,10.0,WNW,3.5,-,N/A,,Mostly Cloudy,290,2013-02-16 21:35:00
4:55 PM,32.0,19.4,60,30.00,5.0,Calm,Calm,-,N/A,Snow,Light Snow,0,2013-02-16 21:55:00
5:15 PM,32.0,23.0,69,30.01,5.0,West,5.8,-,N/A,Snow,Light Snow,270,2013-02-16 22:15:00
5:35 PM,30.2,28.4,93,30.02,1.0,WNW,4.6,-,N/A,Snow,Light Snow,300,2013-02-16 22:35:00
5:55 PM,30.2,26.6,86,30.02,1.5,WNW,6.9,-,N/A,Snow,Light Snow,290,2013-02-16 22:55:00
6:15 PM,30.2,26.6,86,30.02,10.0,West,5.8,-,N/A,,Mostly Cloudy,270,2013-02-16 23:15:00
6:35 PM,30.2,26.6,86,30.03,10.0,West,3.5,-,N/A,,Scattered Clouds,280,2013-02-16 23:35:00
6:55 PM,30.2,23.0,75,30.03,10.0,WNW,8.1,-,N/A,,Scattered Clouds,300,2013-02-16 23:55:00
7:15 PM,30.2,17.6,60,30.04,10.0,West,5.8,-,N/A,,Scattered Clouds,280,2013-02-17 00:15:00
7:35 PM,28.4,17.6,64,30.04,10.0,WNW,5.8,-,N/A,,Mostly Cloudy,290,2013-02-17 00:35:00
7:55 PM,28.4,15.8,59,30.04,10.0,WNW,3.5,-,N/A,,Scattered Clouds,290,2013-02-17 00:55:00
8:15 PM,28.4,15.8,59,30.04,10.0,WNW,8.1,-,N/A,,Clear,290,2013-02-17 01:15:00
8:35 PM,28.4,15.8,59,30.04,10.0,West,6.9,-,N/A,,Clear,280,2013-02-17 01:35:00
8:55 PM,26.6,14.0,59,30.05,10.0,WNW,6.9,-,N/A,,Clear,290,2013-02-17 01:55:00
9:15 PM,26.6,14.0,59,30.06,10.0,West,6.9,-,N/A,,Clear,270,2013-02-17 02:15:00
9:35 PM,26.6,14.0,59,30.06,10.0,West,6.9,-,N/A,,Clear,280,2013-02-17 02:35:00
9:55 PM,26.6,14.0,59,30.07,10.0,West,5.8,-,N/A,,Clear,280,2013-02-17 02:55:00
10:15 PM,26.6,15.8,64,30.07,10.0,Calm,Calm,-,N/A,,Scattered Clouds,0,2013-02-17 03:15:00
10:35 PM,24.8,15.8,69,30.07,10.0,West,5.8,-,N/A,,Mostly Cloudy,280,2013-02-17 03:35:00
11:15 PM,24.8,15.8,69,30.08,10.0,West,5.8,-,N/A,,Scattered Clouds,270,2013-02-17 04:15:00
11:35 PM,24.8,14.0,64,30.07,10.0,West,5.8,-,N/A,,Scattered Clouds,280,2013-02-17 04:35:00
11:55 PM,24.8,12.2,59,30.08,10.0,WNW,6.9,16.1,N/A,,Mostly Cloudy,300,2013-02-17 04:55:00